Location: Poughquag
(41.6090°N, 73.6820°W)
Time: 16:27:49
(UTC-05:00)

ISS - Pass Details

Date: 23 January 2020
Orbit: 415 x 423 km, 51.6° (Epoch: 25 February)

Event Time Altitude Azimuth Distance (km) Brightness Sun altitude
Rises 17:42:00 0° 232° (SW) 2,368 1.7 -8.3°
Reaches altitude 10° 17:44:06 10° 232° (SW) 1,506 0.4 -8.7°
Maximum altitude 17:47:29 86° 145° (SE) 428 -3.8 -9.3°
Enters shadow 17:50:25 13° 56° (NE) 1,320 -1.8 -9.8°
